GW4351 Weather Reports


time (UTC)temp
F
wind
direction
speed
knots
gust
knots
rain 1hr
in
rain 24hr
in
rain mn
in
humidity
%
barometer
mb
20260906223108 85 278 2.6 5.2 0.00 0.00 0.00 37 1016.0
20260906222559 85 300 1.7 3.5 0.00 0.00 0.00 36 1016.2
20260906222059 86 302 0.9 6.1 0.00 0.00 0.00 36 1016.0
20260906221604 87 5 0.9 6.1 0.00 0.00 0.00 35 1016.1
20260906221058 87 286 3.5 7.8 0.00 0.00 0.00 34 1016.2
20260906220559 88 279 2.6 7.8 0.00 0.00 0.00 33 1016.3
20260906220104 90 267 2.6 5.2 0.00 0.00 0.00 32 1016.3
20260906215558 91 326 1.7 7.8 0.00 0.00 0.00 32 1016.5
20260906215102 90 317 2.6 7.8 0.00 0.00 0.00 33 1016.5
20260906214602 89 294 3.5 7.0 0.00 0.00 0.00 33 1016.6
20260906214059 88 323 2.6 7.0 0.00 0.00 0.00 34 1016.6
20260906213558 89 352 2.6 6.1 0.00 0.00 0.00 34 1016.7
20260906213100 90 237 1.7 4.3 0.00 0.00 0.00 33 1016.7
20260906212558 88 329 0.9 4.3 0.00 0.00 0.00 34 1016.8
20260906212059 90 26 0.0 5.2 0.00 0.00 0.00 34 1016.8
20260906211601 88 290 1.7 5.2 0.00 0.00 0.00 33 1017.0
20260906211101 85 295 1.7 5.2 0.00 0.00 0.00 35 1017.1
20260906210559 84 11 0.9 5.2 0.00 0.00 0.00 40 1017.3
20260906210114 84 12 0.9 4.3 0.00 0.00 0.00 37 1017.3
20260906205602 84 0 0.9 1.7 0.00 0.00 0.00 37 1017.5
20260906205058 84 352 0.0 1.7 0.00 0.00 0.00 36 1017.4
20260906204608 84 22 0.0 1.7 0.00 0.00 0.00 40 1017.4
20260906204101 84 0 0.0 2.6 0.00 0.00 0.00 36 1017.5
20260906203602 84 19 0.0 4.3 0.00 0.00 0.00 38 1017.6
20260906203103 84 0 0.9 4.3 0.00 0.00 0.00 39 1017.6
20260906202558 85 326 0.0 1.7 0.00 0.00 0.00 36 1017.6
20260906202059 85 0 0.0 4.3 0.00 0.00 0.00 33 1017.7
20260906201607 86 14 0.0 7.0 0.00 0.00 0.00 31 1017.7
20260906201058 87 24 0.9 7.8 0.00 0.00 0.00 31 1017.8
20260906200558 87 87 0.9 8.7 0.00 0.00 0.00 32 1017.9
20260906200120 91 107 1.7 8.7 0.00 0.00 0.00 29 1017.8
20260906195601 92 360 2.6 8.7 0.00 0.00 0.00 32 1018.0
20260906195100 92 126 2.6 7.0 0.00 0.00 0.00 32 1018.0
20260906194623 91 140 1.7 7.0 0.00 0.00 0.00 31 1017.9
20260906194058 91 352 0.9 7.0 0.00 0.00 0.00 37 1017.9
20260906193558 89 71 1.7 5.2 0.00 0.00 0.00 33 1018.0
20260906193104 90 331 0.9 8.7 0.00 0.00 0.00 34 1018.1
20260906192600 90 60 0.9 9.6 0.00 0.00 0.00 35 1018.1
20260906192100 90 128 3.5 9.6 0.00 0.00 0.00 36 1018.3
20260906191604 89 10 1.7 7.8 0.00 0.00 0.00 40 1018.5
20260906191100 87 13 2.6 9.6 0.00 0.00 0.00 40 1018.6
20260906190601 88 56 2.6 9.6 0.00 0.00 0.00 41 1018.6
20260906190150 88 348 2.6 8.7 0.00 0.00 0.00 36 1018.6
20260906185559 88 243 2.6 8.7 0.00 0.00 0.00 39 1018.7
20260906185059 87 69 0.9 7.8 0.00 0.00 0.00 42 1018.8
20260906184605 87 5 0.9 4.3 0.00 0.00 0.00 44 1018.9
20260906184058 87 40 1.7 6.1 0.00 0.00 0.00 40 1019.1
20260906183558 88 22 0.9 6.1 0.00 0.00 0.00 41 1019.3
20260906183111 85 157 1.7 7.0 0.00 0.00 0.00 43 1019.3
20260906182559 86 63 1.7 7.0 0.00 0.00 0.00 42 1019.4
20260906182058 86 360 1.7 7.0 0.00 0.00 0.00 42 1019.5
20260906181603 86 11 1.7 7.0 0.00 0.00 0.00 43 1019.5
20260906181059 82 236 0.9 6.1 0.00 0.00 0.00 44 1019.5
20260906180600 83 157 2.6 6.1 0.00 0.00 0.00 44 1019.6
20260906180103 84 88 1.7 6.1 0.00 0.00 0.00 42 1019.7
20260906175600 85 48 1.7 6.1 0.00 0.00 0.00 47 1019.8
20260906175103 83 100 1.7 5.2 0.00 0.00 0.00 47 1019.9
20260906174607 83 150 0.9 3.5 0.00 0.00 0.00 50 1020.1
20260906174100 80 173 0.9 3.5 0.00 0.00 0.00 53 1020.2
20260906173601 81 0 0.9 5.2 0.00 0.00 0.00 51 1020.3
20260906173120 81 121 0.9 5.2 0.00 0.00 0.00 53 1020.4
20260906172559 80 128 0.9 6.1 0.00 0.00 0.00 54 1020.5
20260906172058 80 0 0.0 6.1 0.00 0.00 0.00 56 1020.4
20260906171604 79 148 1.7 7.0 0.00 0.00 0.00 56 1020.5
20260906171058 79 91 2.6 7.0 0.00 0.00 0.00 58 1020.5
20260906170600 78 70 0.9 4.3 0.00 0.00 0.00 57 1020.4
20260906170110 77 0 0.9 4.3 0.00 0.00 0.00 57 1020.7
20260906165558 76 186 0.9 3.5 0.00 0.00 0.00 59 1020.8
20260906165059 75 222 0.9 3.5 0.00 0.00 0.00 59 1020.9
20260906164604 76 77 0.9 3.5 0.00 0.00 0.00 59 1020.9
20260906164059 76 0 0.9 4.3 0.00 0.00 0.00 57 1021.1
20260906163601 75 17 0.9 5.2 0.00 0.00 0.00 60 1021.1
20260906163106 74 224 2.6 5.2 0.00 0.00 0.00 61 1021.0
20260906162559 73 0 0.9 3.5 0.00 0.00 0.00 63 1021.0
20260906162058 73 14 0.0 3.5 0.00 0.00 0.00 66 1021.1
20260906161604 73 300 0.0 3.5 0.00 0.00 0.00 62 1021.0
20260906161058 73 0 0.9 5.2 0.00 0.00 0.00 62 1020.9
20260906160558 73 340 1.7 5.2 0.00 0.00 0.00 62 1021.0
20260906160104 72 24 1.7 5.2 0.00 0.00 0.00 64 1020.9
20260906155600 71 277 0.9 2.6 0.00 0.00 0.00 66 1020.9
20260906155058 70 347 0.9 4.3 0.00 0.00 0.00 68 1021.0
20260906154610 70 0 0.9 4.3 0.00 0.00 0.00 68 1021.0
20260906154059 70 332 0.9 2.6 0.00 0.00 0.00 70 1021.0
20260906153559 69 360 0.9 2.6 0.00 0.00 0.00 73 1021.1
20260906153102 68 0 0.9 3.5 0.00 0.00 0.00 73 1021.0
20260906152559 68 303 0.9 3.5 0.00 0.00 0.00 73 1021.2
20260906152100 68 127 0.0 3.5 0.00 0.00 0.00 74 1021.1
20260906151606 67 11 0.9 3.5 0.00 0.00 0.00 76 1021.1
20260906151059 67 10 0.0 3.5 0.00 0.00 0.00 77 1021.2
20260906150559 67 71 0.9 3.5 0.00 0.00 0.00 78 1021.2
20260906150107 66 0 0.0 2.6 0.00 0.00 0.00 80 1021.3
20260906145559 66 306 0.9 2.6 0.00 0.00 0.00 79 1021.2
20260906145101 65 5 0.9 2.6 0.00 0.00 0.00 81 1021.1
20260906144605 65 0 0.9 2.6 0.00 0.00 0.00 80 1021.1
20260906144058 65 0 0.0 4.3 0.00 0.00 0.00 79 1021.3
20260906143601 65 17 0.0 4.3 0.00 0.00 0.00 79 1021.3
20260906143111 66 15 1.7 3.5 0.00 0.00 0.00 78 1021.3
20260906142559 66 351 0.9 6.1 0.00 0.00 0.00 79 1021.3
20260906142100 65 360 0.9 6.1 0.00 0.00 0.00 80 1021.2
20260906141605 65 38 1.7 3.5 0.00 0.00 0.00 81 1021.1
20260906141059 64 0 1.7 3.5 0.00 0.00 0.00 81 1021.2
20260906140600 64 360 0.0 5.2 0.00 0.00 0.00 82 1021.3
20260906140105 63 29 1.7 6.1 0.00 0.00 0.00 81 1021.1
20260906135559 63 316 1.7 6.1 0.00 0.00 0.00 81 1020.9
20260906135059 63 15 1.7 6.1 0.00 0.00 0.00 81 1020.9
20260906134603 63 324 0.0 2.6 0.00 0.00 0.00 81 1021.0
20260906134103 63 0 0.9 2.6 0.00 0.00 0.00 81 1021.1
20260906133559 62 0 0.0 1.7 0.00 0.00 0.00 82 1021.1
20260906133119 62 323 0.9 1.7 0.00 0.00 0.00 81 1021.1
20260906132559 61 0 0.0 0.0 0.00 0.00 0.00 82 1021.0
20260906132058 60 0 0.0 0.0 0.00 0.00 0.00 82 1021.0
20260906131604 60 0 0.0 0.0 0.00 0.00 0.00 82 1020.9
20260906131059 60 0 0.0 0.0 0.00 0.00 0.00 82 1020.8
20260906130559 60 0 0.0 0.0 0.00 0.00 0.00 82 1021.0
20260906130117 60 0 0.0 0.0 0.00 0.00 0.00 83 1020.9
20260906125558 60 0 0.0 0.0 0.00 0.00 0.00 84 1020.9
20260906125059 60 0 0.0 0.0 0.00 0.00 0.00 83 1020.9
20260906124604 59 0 0.0 0.0 0.00 0.00 0.00 82 1020.8
20260906124059 60 0 0.0 0.0 0.00 0.00 0.00 82 1020.7
20260906123558 59 0 0.0 0.0 0.00 0.00 0.00 83 1020.6
20260906123105 59 0 0.0 0.0 0.00 0.00 0.00 83 1020.7
20260906122601 60 0 0.0 0.0 0.00 0.00 0.00 81 1020.7
20260906122059 60 0 0.0 0.0 0.00 0.00 0.00 80 1020.8
20260906121601 60 0 0.0 0.0 0.00 0.00 0.00 80 1020.7
20260906121058 61 0 0.0 0.0 0.00 0.00 0.00 79 1020.6
20260906120559 61 0 0.0 0.0 0.00 0.00 0.00 79 1020.4
20260906120104 61 0 0.0 0.0 0.00 0.00 0.00 79 1020.5
20260906115559 61 0 0.0 0.0 0.00 0.00 0.00 78 1020.6
20260906115059 61 0 0.0 2.6 0.00 0.00 0.00 78 1020.5
20260906114602 61 0 0.0 2.6 0.00 0.00 0.00 79 1020.4
20260906114102 60 5 0.0 1.7 0.00 0.00 0.00 79 1020.7
20260906113558 60 5 0.0 0.9 0.00 0.00 0.00 78 1020.6
20260906113104 60 0 0.0 2.6 0.00 0.00 0.00 77 1020.6
20260906112558 61 0 0.0 2.6 0.00 0.00 0.00 77 1020.6
20260906112058 61 5 0.9 2.6 0.00 0.00 0.00 75 1020.6
20260906111602 61 5 0.0 2.6 0.00 0.00 0.00 75 1020.4
20260906111058 61 5 0.9 2.6 0.00 0.00 0.00 75 1020.3
20260906110600 61 333 0.0 0.9 0.00 0.00 0.00 74 1020.4
20260906105559 61 0 0.0 1.7 0.00 0.00 0.00 73 1020.4
20260906105059 62 0 0.0 1.7 0.00 0.00 0.00 72 1020.6
20260906104604 62 311 0.9 1.7 0.00 0.00 0.00 71 1020.5
20260906104058 62 311 0.0 1.7 0.00 0.00 0.00 72 1020.6
20260906103558 62 0 0.0 1.7 0.00 0.00 0.00 73 1020.5
20260906103105 62 0 0.0 0.9 0.00 0.00 0.00 73 1020.5
20260906102600 62 49 0.0 0.9 0.00 0.00 0.00 73 1020.4
20260906102058 61 0 0.0 0.9 0.00 0.00 0.00 74 1020.5
20260906101608 62 0 0.0 0.0 0.00 0.00 0.00 71 1020.5
20260906101059 62 0 0.0 1.7 0.00 0.00 0.00 71 1020.5
20260906100558 62 0 0.0 1.7 0.00 0.00 0.00 71 1020.4
20260906100105 63 49 0.0 1.7 0.00 0.00 0.00 70 1020.3
20260906095601 63 0 0.0 0.0 0.00 0.00 0.00 69 1020.4
20260906095102 63 0 0.0 0.9 0.00 0.00 0.00 68 1020.3
20260906094610 63 0 0.0 0.9 0.00 0.00 0.00 68 1020.3
20260906094058 63 0 0.0 0.9 0.00 0.00 0.00 68 1020.4
20260906093558 63 0 0.0 0.9 0.00 0.00 0.00 69 1020.4
20260906093117 63 0 0.0 0.9 0.00 0.00 0.00 68 1020.5
20260906092602 63 0 0.0 0.9 0.00 0.00 0.00 67 1020.4
20260906092058 64 0 0.0 1.7 0.00 0.00 0.00 67 1020.2
20260906091606 64 0 0.0 1.7 0.00 0.00 0.00 65 1020.1
20260906091101 64 161 0.0 1.7 0.00 0.00 0.00 65 1020.0
20260906090558 65 0 0.0 0.9 0.00 0.00 0.00 64 1019.9
20260906090140 65 0 0.0 0.9 0.00 0.00 0.00 63 1019.7
20260906085601 65 0 0.0 4.3 0.00 0.00 0.00 62 1019.6
20260906085058 66 0 0.0 4.3 0.00 0.00 0.00 61 1019.6
20260906084620 66 158 0.0 7.8 0.00 0.00 0.00 60 1019.7
20260906084058 66 0 1.7 7.8 0.00 0.00 0.00 60 1019.6
20260906083558 67 13 3.5 7.8 0.00 0.00 0.00 60 1019.4
20260906083104 67 11 2.6 7.0 0.00 0.00 0.00 59 1019.5
20260906082557 67 22 2.6 7.8 0.00 0.00 0.00 58 1019.5
20260906082058 67 12 1.7 7.8 0.00 0.00 0.00 56 1019.6
20260906081604 67 5 2.6 7.0 0.00 0.00 0.00 56 1019.6
20260906081100 67 331 3.5 7.0 0.00 0.00 0.00 56 1019.7
20260906080600 67 351 0.9 3.5 0.00 0.00 0.00 54 1019.7
20260906080110 67 15 1.7 6.1 0.00 0.00 0.00 54 1019.7
20260906075558 68 9 0.9 6.1 0.00 0.00 0.00 51 1019.6
20260906075058 69 12 2.6 5.2 0.00 0.00 0.00 50 1019.7
20260906074604 69 360 2.6 4.3 0.00 0.00 0.00 49 1019.6
20260906074059 69 11 1.7 4.3 0.00 0.00 0.00 49 1019.5
20260906073600 70 5 1.7 3.5 0.00 0.00 0.00 50 1019.6
20260906073102 70 24 1.7 4.3 0.00 0.00 0.00 49 1019.7
20260906072559 70 27 0.9 7.0 0.00 0.00 0.00 49 1019.7
20260906072057 70 5 2.6 7.0 0.00 0.00 0.00 49 1019.7
20260906071602 70 30 1.7 4.3 0.00 0.00 0.00 49 1019.8
20260906071058 70 11 0.9 1.7 0.00 0.00 0.00 49 1019.7
20260906070601 69 40 0.0 1.7 0.00 0.00 0.00 51 1019.6
20260906070106 69 47 0.0 1.7 0.00 0.00 0.00 52 1019.5
20260906065600 69 5 0.0 1.7 0.00 0.00 0.00 52 1019.6
20260906065059 69 0 0.9 1.7 0.00 0.00 0.00 51 1019.7
20260906064603 70 5 0.0 1.7 0.00 0.00 0.00 51 1019.8
20260906064059 70 0 0.0 1.7 0.00 0.00 0.00 50 1019.7
20260906063558 70 5 0.0 1.7 0.00 0.00 0.00 52 1019.8
20260906063104 70 0 0.0 1.7 0.00 0.00 0.00 51 1019.8
20260906062558 70 5 0.0 0.9 0.00 0.00 0.00 50 1019.8
20260906062100 70 0 0.0 3.5 0.00 0.00 0.00 48 1019.8
20260906061607 71 0 0.0 3.5 0.00 0.00 0.00 48 1019.8
20260906061058 71 5 1.7 4.3 0.00 0.00 0.00 46 1019.7
20260906060601 71 14 1.7 4.3 0.00 0.00 0.00 46 1019.4
20260906060106 71 352 1.7 3.5 0.00 0.00 0.00 48 1019.3
20260906055558 70 12 1.7 3.5 0.00 0.00 0.00 53 1019.5
20260906055059 70 101 0.0 1.7 0.00 0.00 0.00 54 1019.7
20260906054607 70 0 0.0 1.7 0.00 0.00 0.00 50 1019.9
20260906054059 70 0 0.0 1.7 0.00 0.00 0.00 54 1020.0
20260906053558 71 0 0.0 1.7 0.00 0.00 0.00 47 1020.2
20260906053118 71 0 0.0 3.5 0.00 0.00 0.00 47 1020.1
20260906052558 72 137 0.9 5.2 0.00 0.00 0.00 46 1020.1
20260906052058 72 136 1.7 6.1 0.00 0.00 0.00 46 1020.4
20260906051601 72 136 1.7 6.1 0.00 0.00 0.00 47 1020.4
20260906051058 73 115 2.6 6.1 0.00 0.00 0.00 46 1020.2
20260906050558 73 148 0.0 0.9 0.00 0.00 0.00 45 1020.0
20260906050107 72 0 0.0 3.5 0.00 0.00 0.00 45 1019.7
20260906045600 72 0 0.0 3.5 0.00 0.00 0.00 45 1019.6
20260906045059 73 0 0.9 3.5 0.00 0.00 0.00 44 1019.5
20260906044621 72 207 0.0 2.6 0.00 0.00 0.00 45 1019.5
20260906044058 72 0 0.0 2.6 0.00 0.00 0.00 46 1019.5
20260906043558 72 231 0.9 2.6 0.00 0.00 0.00 47 1019.5
20260906043105 71 231 0.9 1.7 0.00 0.00 0.00 49 1019.5
20260906042558 71 0 0.0 2.6 0.00 0.00 0.00 48 1019.6
20260906042058 71 0 0.0 5.2 0.00 0.00 0.00 48 1019.6
20260906041604 72 254 0.9 5.2 0.00 0.00 0.00 45 1019.7
20260906041058 72 259 0.0 3.5 0.00 0.00 0.00 44 1019.4
20260906040558 73 0 0.0 4.3 0.00 0.00 0.00 43 1019.2
20260906040107 74 0 0.9 4.3 0.00 0.00 0.00 42 1019.1
20260906035602 75 5 0.0 2.6 0.00 0.00 0.00 39 1018.9
20260906035058 75 0 0.9 2.6 0.00 0.00 0.00 38 1018.7
20260906034600 75 72 0.0 2.6 0.00 0.00 0.00 39 1018.7
20260906034101 75 42 0.9 2.6 0.00 0.00 0.00 38 1018.4
20260906033558 75 27 0.0 0.9 0.00 0.00 0.00 39 1018.3
20260906033100 75 0 0.0 1.7 0.00 0.00 0.00 40 1018.5
20260906032558 75 0 0.0 1.7 0.00 0.00 0.00 40 1018.6
20260906032058 75 76 0.0 2.6 0.00 0.00 0.00 40 1018.5
20260906031604 75 0 0.0 3.5 0.00 0.00 0.00 39 1018.5
20260906031058 75 155 0.9 4.3 0.00 0.00 0.00 38 1018.4
20260906030558 75 0 0.9 4.3 0.00 0.00 0.00 39 1018.3
20260906030104 76 45 0.9 3.5 0.00 0.00 0.00 38 1018.1
20260906025558 77 15 0.0 3.5 0.00 0.00 0.00 37 1017.8
20260906025101 77 15 1.7 3.5 0.00 0.00 0.00 37 1017.9
20260906024623 79 17 0.9 7.0 0.00 0.00 0.00 36 1017.8
20260906024100 79 294 1.7 7.0 0.00 0.00 0.00 34 1017.8
20260906023558 78 303 1.7 7.0 0.00 0.00 0.00 35 1017.8
20260906023107 78 290 0.9 3.5 0.00 0.00 0.00 35 1017.7
20260906022558 79 20 0.0 4.3 0.00 0.00 0.00 36 1017.6
20260906022058 80 0 1.7 4.3 0.00 0.00 0.00 35 1017.4
20260906021608 80 21 0.9 6.1 0.00 0.00 0.00 34 1017.4
20260906021100 81 315 2.6 7.0 0.00 0.00 0.00 33 1017.5
20260906020559 81 296 2.6 7.0 0.00 0.00 0.00 33 1017.6
20260906020106 80 249 2.6 7.0 0.00 0.00 0.00 34 1017.6
20260906015558 80 278 1.7 5.2 0.00 0.00 0.00 35 1017.6
20260906015058 80 271 1.7 6.1 0.00 0.00 0.00 35 1017.7
20260906014602 80 268 2.6 6.1 0.00 0.00 0.00 35 1017.6
20260906014059 80 270 3.5 7.0 0.00 0.00 0.00 34 1017.5
20260906013558 81 282 3.5 7.0 0.00 0.00 0.00 32 1017.5
20260906013104 81 272 2.6 9.6 0.00 0.00 0.00 32 1017.4
20260906012558 81 290 4.3 9.6 0.00 0.00 0.00 32 1017.3
20260906012058 81 290 3.5 8.7 0.00 0.00 0.00 32 1017.3
20260906011605 81 284 3.5 7.8 0.00 0.00 0.00 32 1017.4
20260906011059 82 284 3.5 6.1 0.00 0.00 0.00 31 1017.4
20260906010558 82 312 3.5 8.7 0.00 0.00 0.00 31 1017.4
20260906010131 83 273 5.2 9.6 0.00 0.00 0.00 30 1017.3
20260906005604 83 319 5.2 9.6 0.00 0.00 0.00 30 1017.4
20260906005058 84 280 4.3 8.7 0.00 0.00 0.00 30 1017.4
20260906004604 84 287 4.3 12.2 0.00 0.00 0.00 29 1017.4
20260906004059 85 288 5.2 12.2 0.00 0.00 0.00 29 1017.4
20260906003559 85 296 7.0 12.2 0.00 0.00 0.00 28 1017.5
20260906003105 85 319 5.2 11.3 0.00 0.00 0.00 28 1017.6
20260906002558 86 261 5.2 11.3 0.00 0.00 0.00 28 1017.5
20260906002102 87 323 6.1 11.3 0.00 0.00 0.00 27 1017.6
20260906001613 87 282 3.5 7.0 0.00 0.00 0.00 26 1017.6
20260906001058 88 323 1.7 7.0 0.00 0.00 0.00 25 1017.5
20260906000558 89 303 1.7 7.0 0.00 0.00 0.00 25 1017.4
20260906000104 89 360 1.7 6.1 0.00 0.00 0.00 25 1017.4
20260905235559 88 316 2.6 6.1 0.00 0.00 0.00 25 1017.4
20260905235058 89 306 1.7 4.3 0.00 0.00 0.00 25 1017.4
20260905234608 88 319 1.7 4.3 0.00 0.00 0.00 24 1017.4
20260905234059 88 294 1.7 3.5 0.00 0.00 0.00 25 1017.4
20260905233559 88 304 0.9 2.6 0.00 0.00 0.00 25 1017.4
20260905233100 88 355 0.0 2.6 0.00 0.00 0.00 24 1017.2
20260905232601 88 17 0.0 4.3 0.00 0.00 0.00 29 1017.1
20260905232058 88 0 0.9 4.3 0.00 0.00 0.00 25 1017.2
20260905231603 88 351 0.9 3.5 0.00 0.00 0.00 32 1017.1
20260905231058 88 20 0.9 7.0 0.00 0.00 0.00 30 1017.1
20260905230604 88 29 2.6 7.0 0.00 0.00 0.00 26 1017.0
20260905230125 88 29 0.0 2.6 0.00 0.00 0.00 27 1017.0
20260905225601 89 0 0.0 4.3 0.00 0.00 0.00 27 1016.8
20260905225058 89 0 0.0 4.3 0.00 0.00 0.00 28 1016.9
20260905224603 88 5 0.0 3.5 0.00 0.00 0.00 28 1016.7
20260905224058 90 0 0.0 3.5 0.00 0.00 0.00 24 1016.9
20260905223559 90 0 0.0 2.6 0.00 0.00 0.00 26 1016.8